����������;��������(kVARh)
2018-11-26 00:00;0,1
2018-11-26 00:15;0
2018-11-26 00:30;0
2018-11-26 00:45;0,1
2018-11-26 01:00;0,35
2018-11-26 01:15;0,7
2018-11-26 01:30;1,15
2018-11-26 01:45;1,9
2018-11-26 02:00;2,5
2018-11-26 02:15;2,4
2018-11-26 02:30;3,6
2018-11-26 02:45;3,55
2018-11-26 03:00;5,05
2018-11-26 03:15;14,55
2018-11-26 03:30;15,1
2018-11-26 03:45;14,95
2018-11-26 04:00;16
2018-11-26 04:15;14,6
2018-11-26 04:30;14,8
2018-11-26 04:45;14,4
2018-11-26 05:00;7,1
2018-11-26 05:15;5,05
2018-11-26 05:30;9,65
2018-11-26 05:45;25,5
2018-11-26 06:00;25,7
2018-11-26 06:15;21,6
2018-11-26 06:30;17,65
2018-11-26 06:45;12,1
2018-11-26 07:00;9,8
2018-11-26 07:15;10,3
2018-11-26 07:30;12,65
2018-11-26 07:45;42,7
2018-11-26 08:00;21,6
2018-11-26 08:15;23,6
2018-11-26 08:30;21,7
2018-11-26 08:45;32,6
2018-11-26 09:00;21,6
2018-11-26 09:15;25,6
2018-11-26 09:30;28,55
2018-11-26 09:45;32,15
2018-11-26 10:00;29,55
2018-11-26 10:15;29
2018-11-26 10:30;30,8
2018-11-26 10:45;43,9
2018-11-26 11:00;46,45
2018-11-26 11:15;44,2
2018-11-26 11:30;39,6
2018-11-26 11:45;43,3
2018-11-26 12:00;39,3
2018-11-26 12:15;45,9
2018-11-26 12:30;48,8
2018-11-26 12:45;48,5
2018-11-26 13:00;45,1
2018-11-26 13:15;54,55
2018-11-26 13:30;46,2
2018-11-26 13:45;51,15
2018-11-26 14:00;54,6
2018-11-26 14:15;52,4
2018-11-26 14:30;46,55
2018-11-26 14:45;53,4
2018-11-26 15:00;41,35
2018-11-26 15:15;49
2018-11-26 15:30;47,2
2018-11-26 15:45;39,9
2018-11-26 16:00;38,9
2018-11-26 16:15;39,8
2018-11-26 16:30;45,5
2018-11-26 16:45;47,35
2018-11-26 17:00;40,85
2018-11-26 17:15;41,3
2018-11-26 17:30;33,75
2018-11-26 17:45;36,35
2018-11-26 18:00;37,45
2018-11-26 18:15;34,35
2018-11-26 18:30;34,1
2018-11-26 18:45;34,2
2018-11-26 19:00;31,55
2018-11-26 19:15;26,75
2018-11-26 19:30;25,8
2018-11-26 19:45;23,15
2018-11-26 20:00;21,65
2018-11-26 20:15;21,3
2018-11-26 20:30;17,55
2018-11-26 20:45;15,95
2018-11-26 21:00;11,6
2018-11-26 21:15;9,6
2018-11-26 21:30;10,75
2018-11-26 21:45;7
2018-11-26 22:00;8,05
2018-11-26 22:15;7,05
2018-11-26 22:30;6,7
2018-11-26 22:45;8,45
2018-11-26 23:00;6,4
2018-11-26 23:15;2,8
2018-11-26 23:30;1,5
2018-11-26 23:45;2
2018-11-27 00:00;1,75
2018-11-27 00:15;2,95
2018-11-27 00:30;2,1
2018-11-27 00:45;3,2
2018-11-27 01:00;2,95
2018-11-27 01:15;3,65
2018-11-27 01:30;4,4
2018-11-27 01:45;3,85
2018-11-27 02:00;3,3
2018-11-27 02:15;3,05
2018-11-27 02:30;4,85
2018-11-27 02:45;5,05
2018-11-27 03:00;4,65
2018-11-27 03:15;6,5
2018-11-27 03:30;5,55
2018-11-27 03:45;6,4
2018-11-27 04:00;10,35
2018-11-27 04:15;18,25
2018-11-27 04:30;18,15
2018-11-27 04:45;19,35
2018-11-27 05:00;19,1
2018-11-27 05:15;15,7
2018-11-27 05:30;11,7
2018-11-27 05:45;22,75
2018-11-27 06:00;31,7
2018-11-27 06:15;29,75
2018-11-27 06:30;22,15
2018-11-27 06:45;17,45
2018-11-27 07:00;16,6
2018-11-27 07:15;16,6
2018-11-27 07:30;13,75
2018-11-27 07:45;40,25
2018-11-27 08:00;10,7
2018-11-27 08:15;14,4
2018-11-27 08:30;13,7
2018-11-27 08:45;19,8
2018-11-27 09:00;17,8
2018-11-27 09:15;23,4
2018-11-27 09:30;25
2018-11-27 09:45;30,9
2018-11-27 10:00;28,8
2018-11-27 10:15;25,3
2018-11-27 10:30;30,7
2018-11-27 10:45;25,4
2018-11-27 11:00;32,95
2018-11-27 11:15;34,1
2018-11-27 11:30;37,95
2018-11-27 11:45;34,85
2018-11-27 12:00;37,4
2018-11-27 12:15;38,85
2018-11-27 12:30;31,25
2018-11-27 12:45;37,45
2018-11-27 13:00;31,6
2018-11-27 13:15;34,75
2018-11-27 13:30;36,35
2018-11-27 13:45;36,9
2018-11-27 14:00;38,1
2018-11-27 14:15;38,15
2018-11-27 14:30;40,95
2018-11-27 14:45;33,35
2018-11-27 15:00;41,15
2018-11-27 15:15;36,45
2018-11-27 15:30;36,15
2018-11-27 15:45;34,7
2018-11-27 16:00;29,15
2018-11-27 16:15;30,25
2018-11-27 16:30;27,5
2018-11-27 16:45;25,4
2018-11-27 17:00;23,8
2018-11-27 17:15;30,15
2018-11-27 17:30;28,75
2018-11-27 17:45;28
2018-11-27 18:00;26,5
2018-11-27 18:15;26,15
2018-11-27 18:30;28,05
2018-11-27 18:45;29,05
2018-11-27 19:00;28,5
2018-11-27 19:15;30,45
2018-11-27 19:30;31,5
2018-11-27 19:45;30,75
2018-11-27 20:00;28,6
2018-11-27 20:15;21,75
2018-11-27 20:30;19,4
2018-11-27 20:45;18,1
2018-11-27 21:00;17,4
2018-11-27 21:15;16,7
2018-11-27 21:30;15,2
2018-11-27 21:45;13,95
2018-11-27 22:00;11,9
2018-11-27 22:15;10,05
2018-11-27 22:30;11,05
2018-11-27 22:45;11,65
2018-11-27 23:00;12,25
2018-11-27 23:15;6,85
2018-11-27 23:30;5,95
2018-11-27 23:45;3,95
2018-11-28 00:00;3,2
2018-11-28 00:15;3,6
2018-11-28 00:30;3,35
2018-11-28 00:45;4,05
2018-11-28 01:00;2,6
2018-11-28 01:15;11,1
2018-11-28 01:30;12,7
2018-11-28 01:45;13,55
2018-11-28 02:00;14,25
2018-11-28 02:15;12,1
2018-11-28 02:30;9,1
2018-11-28 02:45;6,5
2018-11-28 03:00;10,5
2018-11-28 03:15;10,1
2018-11-28 03:30;9
2018-11-28 03:45;9,6
2018-11-28 04:00;11,35
2018-11-28 04:15;8,7
2018-11-28 04:30;11,6
2018-11-28 04:45;11,1
2018-11-28 05:00;11,85
2018-11-28 05:15;9,65
2018-11-28 05:30;7,25
2018-11-28 05:45;10,5
2018-11-28 06:00;9,35
2018-11-28 06:15;19,45
2018-11-28 06:30;25,1
2018-11-28 06:45;23,7
2018-11-28 07:00;19,9
2018-11-28 07:15;12,8
2018-11-28 07:30;15,1
2018-11-28 07:45;41,75
2018-11-28 08:00;15,25
2018-11-28 08:15;17,15
2018-11-28 08:30;16,9
2018-11-28 08:45;25,8
2018-11-28 09:00;26,5
2018-11-28 09:15;32,65
2018-11-28 09:30;28,7
2018-11-28 09:45;31,6
2018-11-28 10:00;32,7
2018-11-28 10:15;35,35
2018-11-28 10:30;35,7
2018-11-28 10:45;33,95
2018-11-28 11:00;42,55
2018-11-28 11:15;48,55
2018-11-28 11:30;57,35
2018-11-28 11:45;52,4
2018-11-28 12:00;57,45
2018-11-28 12:15;51,7
2018-11-28 12:30;58,15
2018-11-28 12:45;49,6
2018-11-28 13:00;52,85
2018-11-28 13:15;56,3
2018-11-28 13:30;54,75
2018-11-28 13:45;52,05
2018-11-28 14:00;53,15
2018-11-28 14:15;52,05
2018-11-28 14:30;56,25
2018-11-28 14:45;52,6
2018-11-28 15:00;48,5
2018-11-28 15:15;51
2018-11-28 15:30;41,95
2018-11-28 15:45;39,9
2018-11-28 16:00;39,75
2018-11-28 16:15;37,3
2018-11-28 16:30;35,8
2018-11-28 16:45;34,7
2018-11-28 17:00;32,3
2018-11-28 17:15;29,15
2018-11-28 17:30;26,7
2018-11-28 17:45;26,2
2018-11-28 18:00;25,8
2018-11-28 18:15;26,65
2018-11-28 18:30;26,15
2018-11-28 18:45;26,55
2018-11-28 19:00;24,65
2018-11-28 19:15;21,7
2018-11-28 19:30;23,1
2018-11-28 19:45;23,55
2018-11-28 20:00;20,25
2018-11-28 20:15;19,7
2018-11-28 20:30;20,2
2018-11-28 20:45;19,5
2018-11-28 21:00;19
2018-11-28 21:15;17
2018-11-28 21:30;7,6
2018-11-28 21:45;2,7
2018-11-28 22:00;0,05
2018-11-28 22:15;0
2018-11-28 22:30;0
2018-11-28 22:45;0
2018-11-28 23:00;0,2
2018-11-28 23:15;0,65
2018-11-28 23:30;0,25
2018-11-28 23:45;2,3
2018-11-29 00:00;0,4
2018-11-29 00:15;1,7
2018-11-29 00:30;1,2
2018-11-29 00:45;0,4
2018-11-29 01:00;1,45
2018-11-29 01:15;3,6
2018-11-29 01:30;11,1
2018-11-29 01:45;12,75
2018-11-29 02:00;15,55
2018-11-29 02:15;15,6
2018-11-29 02:30;15,2
2018-11-29 02:45;12,2
2018-11-29 03:00;7
2018-11-29 03:15;8,3
2018-11-29 03:30;11,7
2018-11-29 03:45;10,1
2018-11-29 04:00;7,9
2018-11-29 04:15;6,55
2018-11-29 04:30;8,95
2018-11-29 04:45;7,9
2018-11-29 05:00;9,15
2018-11-29 05:15;9,8
2018-11-29 05:30;10,45
2018-11-29 05:45;8,2
2018-11-29 06:00;8
2018-11-29 06:15;8,4
2018-11-29 06:30;6,65
2018-11-29 06:45;15,4
2018-11-29 07:00;25,15
2018-11-29 07:15;24,65
2018-11-29 07:30;21,6
2018-11-29 07:45;38,65
2018-11-29 08:00;14,8
2018-11-29 08:15;16,55
2018-11-29 08:30;16,25
2018-11-29 08:45;25
2018-11-29 09:00;28,4
2018-11-29 09:15;29,35
2018-11-29 09:30;34,1
2018-11-29 09:45;39,15
2018-11-29 10:00;40,95
2018-11-29 10:15;40,35
2018-11-29 10:30;48
2018-11-29 10:45;47,25
2018-11-29 11:00;52,8
2018-11-29 11:15;51,05
2018-11-29 11:30;55,85
2018-11-29 11:45;60,35
2018-11-29 12:00;58,65
2018-11-29 12:15;59,05
2018-11-29 12:30;57
2018-11-29 12:45;65,4
2018-11-29 13:00;62,15
2018-11-29 13:15;61,35
2018-11-29 13:30;63,55
2018-11-29 13:45;75,55
2018-11-29 14:00;70,4
2018-11-29 14:15;75,15
2018-11-29 14:30;70,55
2018-11-29 14:45;81,6
2018-11-29 15:00;73
2018-11-29 15:15;72,35
2018-11-29 15:30;70,05
2018-11-29 15:45;64,5
2018-11-29 16:00;62,55
2018-11-29 16:15;60,9
2018-11-29 16:30;59,4
2018-11-29 16:45;56,85
2018-11-29 17:00;55,3
2018-11-29 17:15;53,65
2018-11-29 17:30;49,15
2018-11-29 17:45;45,9
2018-11-29 18:00;45,75
2018-11-29 18:15;42,75
2018-11-29 18:30;37,3
2018-11-29 18:45;33,9
2018-11-29 19:00;32,15
2018-11-29 19:15;29,95
2018-11-29 19:30;26,6
2018-11-29 19:45;27,35
2018-11-29 20:00;26,8
2018-11-29 20:15;22,55
2018-11-29 20:30;17,15
2018-11-29 20:45;16,7
2018-11-29 21:00;17,35
2018-11-29 21:15;17,8
2018-11-29 21:30;15,7
2018-11-29 21:45;13,5
2018-11-29 22:00;12,25
2018-11-29 22:15;13,4
2018-11-29 22:30;6,15
2018-11-29 22:45;6,4
2018-11-29 23:00;6,4
2018-11-29 23:15;5,1
2018-11-29 23:30;4,2
2018-11-29 23:45;6,2
2018-11-30 00:00;5,8
2018-11-30 00:15;5,9
2018-11-30 00:30;7
2018-11-30 00:45;7,45
2018-11-30 01:00;8,75
2018-11-30 01:15;8,1
2018-11-30 01:30;9,35
2018-11-30 01:45;11
2018-11-30 02:00;21,45
2018-11-30 02:15;21,8
2018-11-30 02:30;16,8
2018-11-30 02:45;16,5
2018-11-30 03:00;16,3
2018-11-30 03:15;18,45
2018-11-30 03:30;17,95
2018-11-30 03:45;32,75
2018-11-30 04:00;34,05
2018-11-30 04:15;31,65
2018-11-30 04:30;28,55
2018-11-30 04:45;23,6
2018-11-30 05:00;18,4
2018-11-30 05:15;14
2018-11-30 05:30;12,15
2018-11-30 05:45;11,15
2018-11-30 06:00;11,65
2018-11-30 06:15;21,45
2018-11-30 06:30;10,15
2018-11-30 06:45;10,2
2018-11-30 07:00;8,6
2018-11-30 07:15;7,55
2018-11-30 07:30;9,65
2018-11-30 07:45;21,55
2018-11-30 08:00;11,6
2018-11-30 08:15;16,85
2018-11-30 08:30;23
2018-11-30 08:45;29,35
2018-11-30 09:00;36,45
2018-11-30 09:15;45,2
2018-11-30 09:30;43,55
2018-11-30 09:45;47,4
2018-11-30 10:00;49,5
2018-11-30 10:15;52,1
2018-11-30 10:30;51,65
2018-11-30 10:45;52,65
2018-11-30 11:00;69,45
2018-11-30 11:15;68,05
2018-11-30 11:30;70,8
2018-11-30 11:45;71,75
2018-11-30 12:00;67,05
2018-11-30 12:15;64,6
2018-11-30 12:30;70,55
2018-11-30 12:45;83,65
2018-11-30 13:00;95,45
2018-11-30 13:15;71,25
2018-11-30 13:30;73,6
2018-11-30 13:45;73,9
2018-11-30 14:00;66,2
2018-11-30 14:15;73,15
2018-11-30 14:30;73,6
2018-11-30 14:45;68,85
2018-11-30 15:00;69,8
2018-11-30 15:15;63,65
2018-11-30 15:30;66,05
2018-11-30 15:45;58,2
2018-11-30 16:00;48,8
2018-11-30 16:15;45,3
2018-11-30 16:30;45,5
2018-11-30 16:45;44,15
2018-11-30 17:00;43,15
2018-11-30 17:15;36,85
2018-11-30 17:30;33,55
2018-11-30 17:45;35
2018-11-30 18:00;32,2
2018-11-30 18:15;27,2
2018-11-30 18:30;26,3
2018-11-30 18:45;24,7
2018-11-30 19:00;24,2
2018-11-30 19:15;22,15
2018-11-30 19:30;17,4
2018-11-30 19:45;14,95
2018-11-30 20:00;15,45
2018-11-30 20:15;16,4
2018-11-30 20:30;16,7
2018-11-30 20:45;17,15
2018-11-30 21:00;18
2018-11-30 21:15;20,85
2018-11-30 21:30;14,25
2018-11-30 21:45;5,45
2018-11-30 22:00;2,45
2018-11-30 22:15;3
2018-11-30 22:30;3,75
2018-11-30 22:45;1,85
2018-11-30 23:00;2,25
2018-11-30 23:15;1,15
2018-11-30 23:30;0,95
2018-11-30 23:45;2,8
2018-12-01 00:00;0,3
2018-12-01 00:15;0
2018-12-01 00:30;0
2018-12-01 00:45;0,05
2018-12-01 01:00;0
2018-12-01 01:15;0,2
2018-12-01 01:30;0,2
2018-12-01 01:45;1,2
2018-12-01 02:00;1,6
2018-12-01 02:15;2,35
2018-12-01 02:30;2,25
2018-12-01 02:45;0,8
2018-12-01 03:00;1,4
2018-12-01 03:15;0,7
2018-12-01 03:30;0,6
2018-12-01 03:45;0
2018-12-01 04:00;0
2018-12-01 04:15;0
2018-12-01 04:30;0
2018-12-01 04:45;0
2018-12-01 05:00;0
2018-12-01 05:15;0
2018-12-01 05:30;0
2018-12-01 05:45;0
2018-12-01 06:00;0
2018-12-01 06:15;0
2018-12-01 06:30;0
2018-12-01 06:45;0
2018-12-01 07:00;0
2018-12-01 07:15;0,05
2018-12-01 07:30;0
2018-12-01 07:45;0
2018-12-01 08:00;0
2018-12-01 08:15;0
2018-12-01 08:30;0
2018-12-01 08:45;0,05
2018-12-01 09:00;0
2018-12-01 09:15;0
2018-12-01 09:30;0,25
2018-12-01 09:45;0,1
2018-12-01 10:00;0,55
2018-12-01 10:15;0,5
2018-12-01 10:30;0,4
2018-12-01 10:45;0,75
2018-12-01 11:00;1,3
2018-12-01 11:15;1,1
2018-12-01 11:30;3,7
2018-12-01 11:45;5,6
2018-12-01 12:00;4,85
2018-12-01 12:15;4,2
2018-12-01 12:30;4,35
2018-12-01 12:45;4,25
2018-12-01 13:00;5,4
2018-12-01 13:15;5,5
2018-12-01 13:30;5,75
2018-12-01 13:45;5,7
2018-12-01 14:00;6,25
2018-12-01 14:15;6,95
2018-12-01 14:30;7,2
2018-12-01 14:45;7,7
2018-12-01 15:00;9,1
2018-12-01 15:15;9,05
2018-12-01 15:30;10,15
2018-12-01 15:45;10,45
2018-12-01 16:00;10,4
2018-12-01 16:15;10,85
2018-12-01 16:30;11,85
2018-12-01 16:45;13,4
2018-12-01 17:00;12,6
2018-12-01 17:15;13
2018-12-01 17:30;10,45
2018-12-01 17:45;8,6
2018-12-01 18:00;6,8
2018-12-01 18:15;5
2018-12-01 18:30;6,65
2018-12-01 18:45;6,9
2018-12-01 19:00;7,45
2018-12-01 19:15;6,4
2018-12-01 19:30;6,05
2018-12-01 19:45;4,65
2018-12-01 20:00;5,4
2018-12-01 20:15;4,8
2018-12-01 20:30;3,7
2018-12-01 20:45;5,6
2018-12-01 21:00;4,05
2018-12-01 21:15;0,8
2018-12-01 21:30;1,95
2018-12-01 21:45;0,55
2018-12-01 22:00;0,1
2018-12-01 22:15;0,1
2018-12-01 22:30;0,25
2018-12-01 22:45;0,1
2018-12-01 23:00;0,55
2018-12-01 23:15;0,2
2018-12-01 23:30;0,5
2018-12-01 23:45;1,2
2018-12-02 00:00;0,2
2018-12-02 00:15;0,35
2018-12-02 00:30;1,65
2018-12-02 00:45;2,3
2018-12-02 01:00;1,15
2018-12-02 01:15;0,25
2018-12-02 01:30;0,25
2018-12-02 01:45;1,05
2018-12-02 02:00;1
2018-12-02 02:15;1,3
2018-12-02 02:30;1
2018-12-02 02:45;0,8
2018-12-02 03:00;0,3
2018-12-02 03:15;0,65
2018-12-02 03:30;0,25
2018-12-02 03:45;0,05
2018-12-02 04:00;0,1
2018-12-02 04:15;0,1
2018-12-02 04:30;0,35
2018-12-02 04:45;0,2
2018-12-02 05:00;0
2018-12-02 05:15;0,5
2018-12-02 05:30;0,15
2018-12-02 05:45;0,6
2018-12-02 06:00;0,25
2018-12-02 06:15;0,7
2018-12-02 06:30;0,9
2018-12-02 06:45;0,2
2018-12-02 07:00;0,05
2018-12-02 07:15;0,45
2018-12-02 07:30;0,1
2018-12-02 07:45;0,05
2018-12-02 08:00;0,15
2018-12-02 08:15;0,05
2018-12-02 08:30;0
2018-12-02 08:45;0
2018-12-02 09:00;0,05
2018-12-02 09:15;0
2018-12-02 09:30;0
2018-12-02 09:45;0
2018-12-02 10:00;0
2018-12-02 10:15;0,05
2018-12-02 10:30;0
2018-12-02 10:45;0
2018-12-02 11:00;0
2018-12-02 11:15;0,15
2018-12-02 11:30;0
2018-12-02 11:45;0
2018-12-02 12:00;0
2018-12-02 12:15;0
2018-12-02 12:30;0,55
2018-12-02 12:45;0,15
2018-12-02 13:00;0
2018-12-02 13:15;0,05
2018-12-02 13:30;0
2018-12-02 13:45;0,1
2018-12-02 14:00;0,05
2018-12-02 14:15;0,35
2018-12-02 14:30;0,45
2018-12-02 14:45;2,1
2018-12-02 15:00;3,25
2018-12-02 15:15;2,5
2018-12-02 15:30;1,9
2018-12-02 15:45;2,35
2018-12-02 16:00;4
2018-12-02 16:15;4,15
2018-12-02 16:30;2,95
2018-12-02 16:45;2,3
2018-12-02 17:00;1,05
2018-12-02 17:15;0,4
2018-12-02 17:30;0
2018-12-02 17:45;0
2018-12-02 18:00;0
2018-12-02 18:15;0,75
2018-12-02 18:30;0,7
2018-12-02 18:45;2,1
2018-12-02 19:00;2,4
2018-12-02 19:15;1,4
2018-12-02 19:30;0,3
2018-12-02 19:45;0,7
2018-12-02 20:00;0,5
2018-12-02 20:15;0,4
2018-12-02 20:30;1,85
2018-12-02 20:45;1,35
2018-12-02 21:00;1,7
2018-12-02 21:15;0,25
2018-12-02 21:30;0
2018-12-02 21:45;0
2018-12-02 22:00;0
2018-12-02 22:15;0
2018-12-02 22:30;0
2018-12-02 22:45;0
2018-12-02 23:00;0
2018-12-02 23:15;0,05
2018-12-02 23:30;0
2018-12-02 23:45;0,7

